Overview Statistics Trail Chart Weather Telemetry Raw packets
 

This is the latest recevied weather packets stored in our database for station/object HP3ICC-22. If no packets are shown the sender has not sent any weather packets the latest 10 day(s).

<< 28 29 30 31 32 33 34 >>
Time Temp. Humidity Pressure Rain* Wind** Luminosity Snow
1777292318 8.33° C 74% 1013 hPa 0 mm - - -
1777292258 8.33° C 74% 1013 hPa 0 mm - - -
1777291117 8.33° C 74% 1015 hPa 0 mm - - -
1777291057 8.33° C 74% 1015 hPa 0 mm - - -
1777289917 8.33° C 74% 1015 hPa 0 mm - - -
1777289857 8.33° C 74% 1015 hPa 0 mm - - -
1777288716 7.22° C 81% 1013 hPa 0 mm - - -
1777288656 7.22° C 81% 1013 hPa 0 mm - - -
1777287516 7.78° C 81% 1015 hPa 0 mm - - -
1777287456 7.78° C 81% 1015 hPa 0 mm - - -
1777286315 7.78° C 76% 1014 hPa 0 mm - - -
1777286255 7.78° C 76% 1014 hPa 0 mm - - -
1777285115 8.89° C 74% 1013 hPa 0 mm - - -
1777285055 8.89° C 74% 1013 hPa 0 mm - - -
1777283914 7.78° C 84% 1014 hPa 0 mm - - -
1777283854 7.78° C 84% 1014 hPa 0 mm - - -
1777282714 8.33° C 84% 1014 hPa 0 mm - - -
1777282654 8.33° C 84% 1014 hPa 0 mm - - -
1777281513 8.89° C 74% 1012 hPa 0 mm - - -
1777281453 8.89° C 74% 1012 hPa 0 mm - - -
1777280313 8.33° C 86% 1013 hPa 0 mm - - -
1777280252 8.33° C 86% 1013 hPa 0 mm - - -
1777279112 8.89° C 74% 1013 hPa 0 mm - - -
1777279052 8.89° C 74% 1013 hPa 0 mm - - -
1777277912 8.33° C 83% 1012 hPa 0 mm - - -

* Rain latest hour (hover to see other rain measurements)
** Current wind speed in m/s (hover to see current wind gust speed)